Location: Ústí nad Labem
(50.6611°N, 14.0531°E)
Time: 21:33:22
(UTC+02:00)

Explorer 7 - All Passes

Search period start: 19 April 2024 00:00
Search period end: 29 April 2024 00:00
Orbit: 468 x 628 km, 50.3° (Epoch: 19 April)

Date Brightness Start Highest point End Pass type
(mag) Time Alt. Az. Time Alt. Az. Time Alt. Az.
19 Apr - 12:13:35 10° SSW 12:17:22 26° SE 12:21:11 10° E daylight
19 Apr - 13:52:11 10° WSW 13:56:47 66° SSE 14:01:19 10° E daylight
19 Apr - 15:32:00 10° W 15:36:38 87° S 15:41:08 10° E daylight
19 Apr - 17:11:57 10° W 17:16:24 53° SSW 17:20:39 10° SE daylight
19 Apr - 18:52:36 10° W 18:55:32 17° SW 18:58:22 10° S daylight
20 Apr - 12:07:08 10° SSW 12:11:11 31° SSE 12:15:15 10° E daylight
20 Apr - 13:46:05 10° WSW 13:50:42 73° SSE 13:55:16 10° E daylight
20 Apr - 15:25:56 10° W 15:30:35 85° S 15:35:05 10° E daylight
20 Apr - 17:05:54 10° W 17:10:16 45° SSW 17:14:28 10° SE daylight
20 Apr - 18:47:01 10° WSW 18:49:17 14° SW 18:51:28 10° SSW daylight
21 Apr - 10:25:30 10° SE 10:26:07 10° SE 10:26:44 10° SE daylight
21 Apr - 12:00:46 10° SW 12:05:00 37° SSE 12:09:16 10° E daylight
21 Apr - 13:39:58 10° WSW 13:44:37 79° SSE 13:49:12 10° E daylight
21 Apr - 15:19:52 10° W 15:24:30 81° S 15:29:00 10° ESE daylight
21 Apr - 16:59:52 10° W 17:04:06 39° SSW 17:08:12 10° SE daylight
21 Apr - 18:42:01 10° WSW 18:42:58 11° SW 18:43:55 10° SW daylight
22 Apr - 10:17:36 10° SSE 10:19:48 13° SE 10:22:01 10° ESE daylight
22 Apr - 11:54:27 10° SW 11:58:49 43° SSE 12:03:12 10° E daylight
22 Apr - 13:33:51 10° W 13:38:30 83° S 13:43:06 10° E daylight
22 Apr - 15:13:46 10° W 15:18:23 76° SSW 15:22:53 10° ESE daylight
22 Apr - 16:53:49 10° W 16:57:54 32° SSW 17:01:50 10° SSE daylight
23 Apr - 10:10:34 10° S 10:13:29 17° SE 10:16:26 10° E daylight
23 Apr - 11:48:10 10° SW 11:52:37 51° SSE 11:57:07 10° E daylight
23 Apr - 13:27:44 10° W 13:32:22 86° S 13:36:59 10° E daylight
23 Apr - 15:07:38 10° W 15:12:14 69° SSW 15:16:44 10° ESE daylight
23 Apr - 16:47:48 10° W 16:51:39 27° SW 16:55:22 10° SSE daylight
24 Apr - 10:03:46 10° S 10:07:10 21° SE 10:10:36 10° E daylight
24 Apr - 11:41:54 10° WSW 11:46:25 58° SSE 11:50:58 10° E daylight
24 Apr - 13:21:35 10° W 13:26:14 87° S 13:30:50 10° E daylight
24 Apr - 15:01:30 10° W 15:06:04 62° SSW 15:10:30 10° ESE daylight
24 Apr - 16:41:48 10° W 16:45:21 22° SW 16:48:48 10° SSE daylight
25 Apr - 09:57:07 10° SSW 10:00:51 25° SE 10:04:38 10° E daylight
25 Apr - 11:35:40 10° WSW 11:40:13 66° SSE 11:44:49 10° E daylight
25 Apr - 13:15:25 10° W 13:20:04 87° S 13:24:41 10° E daylight
25 Apr - 14:55:19 10° W 14:59:50 54° SSW 15:04:15 10° SE daylight
25 Apr - 16:35:54 10° W 16:39:00 18° SW 16:42:03 10° S daylight
26 Apr - 09:50:33 10° SSW 09:54:31 30° SE 09:58:34 10° E daylight
26 Apr - 11:29:26 10° WSW 11:34:00 73° SSE 11:38:37 10° E daylight
26 Apr - 13:09:14 10° W 13:13:53 85° S 13:18:29 10° E daylight
26 Apr - 14:49:09 10° W 14:53:35 46° SSW 14:57:55 10° SE daylight
26 Apr - 16:30:08 10° WSW 16:32:37 15° SW 16:35:04 10° SSW daylight
27 Apr - 09:44:04 10° SW 09:48:11 36° SSE 09:52:26 10° E daylight
27 Apr - 11:23:11 10° WSW 11:27:46 79° S 11:32:25 10° E daylight
27 Apr - 13:03:01 10° W 13:07:40 81° S 13:12:16 10° ESE daylight
27 Apr - 14:42:58 10° W 14:47:17 40° SSW 14:51:31 10° SE daylight
27 Apr - 16:24:44 10° WSW 16:26:12 11° SW 16:27:37 10° SSW daylight
28 Apr - 08:00:56 10° SSE 08:02:55 13° SE 08:04:55 10° ESE daylight
28 Apr - 09:37:36 10° SW 09:41:52 43° SSE 09:46:15 10° E daylight
28 Apr - 11:16:57 10° W 11:21:32 83° S 11:26:11 10° E daylight
28 Apr - 12:56:47 10° W 13:01:25 76° SSW 13:06:00 10° ESE daylight
28 Apr - 14:36:47 10° W 14:40:56 33° SSW 14:45:02 10° SSE daylight
